Simultaneous Nadir Overpasses (SNOs) Predictions

Prediction of SNOs between NOAA-19 and TERRA Satellite Orbit:

Table of predicted SNOs for the next 14.0 days since TLE Epoch: 12/7/2018
Index Date (NOAA-19) Time (NOAA-19) Lat,Lon (NOAA-19) SZA (NOAA-19 ) Date (TERRA) Time (TERRA) Lat,Lon (TERRA) SZA (TERRA ) Distance(km) Time Diff (sec)
1 12/10/2018 00:42:59 -78.28, 5.62 78.35 12/10/2018 00:44:02 -78.20, 10.00 78.12 99.90 63
2 12/10/2018 01:33:52 77.79, 175.72 101.37 12/10/2018 01:33:38 77.76, 175.67 101.34 2.72 14
3 12/12/2018 07:07:17 -77.80, -87.63 78.46 12/12/2018 07:07:28 -77.79, -87.69 78.47 2.11 11
4 12/14/2018 12:40:54 77.83, 8.86 101.70 12/14/2018 12:41:20 77.80, 8.89 101.68 3.99 26
5 12/14/2018 13:31:47 -77.77, 176.48 78.34 12/14/2018 13:30:48 -77.77, 176.39 78.36 2.30 59
6 12/16/2018 18:14:18 -77.82, 105.68 78.21 12/16/2018 18:15:15 -77.85, 105.65 78.17 3.80 57
7 12/16/2018 19:05:24 77.80, -87.02 101.78 12/16/2018 19:04:42 77.81, -86.89 101.79 3.13 42
8 12/18/2018 23:48:01 78.08,-159.15 102.00 12/18/2018 23:49:10 77.97,-157.31 102.04 44.27 69
9 12/19/2018 00:38:49 -77.83, 9.57 78.15 12/19/2018 00:38:41 -77.82, 9.63 78.16 1.98 8
10 12/21/2018 06:12:25 77.83, 106.25 101.87 12/21/2018 06:12:41 77.83, 106.21 101.88 0.93 16




NCC Satellite Simultaneous Nadir Overpasses (SNOs) Prediction Service
